{"data":{"norad_id":52702,"epoch":"2026-05-25T00:34:48.673344Z","epoch_age_seconds":76101,"freshness":"FRESH","line1":"1 52702U 22053AY  26145.02417446 -.00002152  00000+0 -11712-3 0  9990","line2":"2 52702  53.2121 166.4710 0001060 109.2999 250.8108 15.08849854222612","mean_motion":15.08849854,"eccentricity":0.000106,"inclination_deg":53.2121,"raan_deg":166.471,"arg_perigee_deg":109.2999,"mean_anomaly_deg":250.8108,"bstar":-0.00011712,"rev_number":22261,"period_min":95.43693139397,"perigee_km":538.97997726362,"apogee_km":540.44656152073,"semimajor_km":6917.8502693922,"source":"CELESTRAK","updated_at":"2026-05-25T13:38:17.238580Z"}}